Regional Weather Roundup
Issued by NWS

Home | Current Version | Previous Version | Text Only | Print | Product List | Glossary On
Versions: 1 2 3 4 5 6 7 8 9 10 11 12 13 14 15 16 17 18 19 20 21 22 23 24 25 26 27 28 29 30 31 32 33 34 35 36 37 38 39 40 41 42 43 44 45 46 47 48 49 50
000
ASUS42 KTBW 210110
RWRFL
FLORIDA REGIONAL WEATHER ROUNDUP
NATIONAL WEATHER SERVICE TAMPA BAY RUSKIN FL
800 PM EST SAT DEC 20 2014

NOTE: "FAIR" INDICATES FEW OR NO CLOUDS BELOW 12,000 FEET WITH NO
SIGNIFICANT WEATHER AND/OR OBSTRUCTIONS TO VISIBILITY.


FLZ001>010-012>015-112-114-115-210200-
PANHANDLE FLORIDA

CITY           SKY/WX    TMP DP  RH WIND       PRES   REMARKS
PENSACOLA      MOCLDY    50  48  93 N9        30.13R
CRESTVIEW      CLOUDY    53  49  86 NE5       30.15R
DUKE FIELD     CLOUDY    53  51  92 N8        30.12R
VALPARAISO     MOCLDY    53  50  91 N8        30.11R
PANAMA CITY    CLOUDY    54  51  90 N8        30.10R
APALACHICOLA   LGT RAIN  60  53  77 NE12      30.08R

STATION/POSITION SKY/WX   TEMP    WIND        PRES    WAVE   SWELL
                          AIR SEA DIR/SP/G            HT/PER HT/PER
                          (F)     (DEG/KT/KT) (MB)    (FT/S) (FT/S)
30.1N   87.6W              57 69   30/ 16/ 19 1018.7R   3/ 6
29.2N   88.2W              61 74   30/ 21/ 27 1017.6R   6/ 7
28.7N   86.0W              72 75  120/ 14/ 17 1016.5R   5/ 6   2/ 7
PANAMA CITY BEAC           55 60   30/  8/ 12 1019.0R
CAPE SAN BLAS    NOT AVBL
TOWER C                    61      50/ 18/ 19 1018.0R
28.5N   84.5W              70 71  110/ 14/ 16 1017.1R   3/ 4   2/ 7

$$
FLZ011-016>038-118-127-128-134-139-239-210200-
NORTH FLORIDA

CITY           SKY/WX    TMP DP  RH WIND       PRES   REMARKS
MARIANNA       CLOUDY    53  53 100 E3        30.13R
TALLAHASSEE    CLOUDY    58  50  75 N6        30.11R
PERRY          CLOUDY    61  53  75 NE5       30.10S
CROSS CITY       N/A     65  54  67 NE5       30.09R
LAKE CITY      CLOUDY    59  52  77 NE3       30.11S
GAINESVILLE    CLOUDY    62  53  72 NE8       30.11R
MAYPORT NAS    CLOUDY    60  57  89 NE15G22   30.14R
JACKSONVILLE   CLOUDY    57  56  96 NE12      30.14R
JAX NAS        CLOUDY    62  55  77 N9        30.14S
JAX CRAIG      CLOUDY    60  56  86 NE10      30.14R
JAX CECIL      MOCLDY    57  54  88 NE7       30.13S
FERNANDINA BEA CLOUDY    63  59  88 N7        30.13R
ST AUGUSTINE   CLOUDY    61  58  90 N12       30.13S

STATION/POSITION SKY/WX   TEMP    WIND        PRES    WAVE   SWELL
                          AIR SEA DIR/SP/G            HT/PER HT/PER
                          (F)     (DEG/KT/KT) (MB)    (FT/S) (FT/S)
SHELL POINT                59      20/  5/  9   N/A
KEATON BEACH               61      40/  2/  3 1019.0R
CEDAR KEY                  64      50/  2/  2 1019.1R
FERNANDINA                 58 59   30/  7/ 12 1020.0R
30.7N   81.3W                 61                N/A     4/ 5
MAYPORT                    60 62   40/ 13/ 17   N/A
31.4N   80.9W              59 59   30/ 16/ 19 1020.6R   4/ 5   2/11
ST AUGUSTINE               62     360/ 15/ 17 1020.1S

$$
FLZ040-043>046-052-053-057-058-063-144-210200-
INTERIOR CENTRAL FLORIDA

CITY           SKY/WX    TMP DP  RH WIND       PRES   REMARKS
OCALA          CLOUDY    64  57  77 E6        30.09R
THE VILLAGES     N/A     66  59  77 NE7       30.00R
LEESBURG       MOCLDY    67  60  78 NE12      30.09R
SANFORD        MOCLDY    66  61  84 NE7       30.09S
ORLANDO EXEC   MOCLDY    67  62  84 E6        30.08S
ORLANDO INTL   MOCLDY    67  62  84 E8        30.08S
KISSIMMEE      MOCLDY    68  64  88 E5        30.08S
WINTER HAVEN   PTCLDY    66  59  78 MISG      30.08S
LAKELAND       PTCLDY    63  57  82 CALM      30.08R
BARTOW         FAIR      63  57  82 CALM      30.08S
OKEECHOBEE     PTCLDY    61  59  94 CALM      30.09R

$$
FLZ041-047-054-059-064-141-147-210200-
EAST CENTRAL FLORIDA

CITY           SKY/WX    TMP DP  RH WIND       PRES   REMARKS
DAYTONA BEACH  MOCLDY    64  62  93 N3        30.10S
DELAND         PTCLDY   N/A N/A N/A NE5       30.10S
JFK SPACE CTR  MOCLDY    66  62  87 CALM      30.09R
TITUSVILLE     PTCLDY    64  61  88 CALM      30.09S
PATRICK AFB    PTCLDY    67  64  90 E5        30.08S
MELBOURNE      PTCLDY    71  62  73 SE5       30.08R
VERO BEACH     CLEAR     62  59  90 CALM      30.09R
FT PIERCE      CLEAR     60  58  92 CALM      30.08R
STUART         CLEAR     66  59  77 S3        30.10R

STATION/POSITION SKY/WX   TEMP    WIND        PRES    WAVE   SWELL
                          AIR SEA DIR/SP/G            HT/PER HT/PER
                          (F)     (DEG/KT/KT) (MB)    (FT/S) (FT/S)
28.5N   80.2W              73 76  120/  6/  8 1018.9R
28.9N   78.5W              73 77  170/  4/  4 1019.8S   2/11   2/11
TRIDENT PIER               67 66  100/  4/  5 1018.3F
28.4N   80.5W                 67                N/A     1/10
27.6N   80.2W                 76                N/A     2/11   2/11

$$
FLZ050-056-061-142-242-148-248-149-249-151-251-155-255-
160-260-210200-
WEST CENTRAL FLORIDA

CITY           SKY/WX    TMP DP  RH WIND       PRES   REMARKS
CRYSTAL RIVER  CLOUDY    63  59  88 CALM      30.09R
INVERNESS      CLOUDY    63  61  94 CALM      30.09R
BROOKSVILLE    CLOUDY    61  56  83 CALM      30.09R
ZEPHYRHILLS    FAIR      63  55  77 CALM      30.09R
CLEARWATER     CLOUDY    66  60  81 NE3       30.07R
TAMPA INTL     MOCLDY    68  59  73 CALM      30.08R
TAMPA EXEC     MOCLDY    63  59  88 CALM      30.09R
PLANT CITY     MOCLDY    66  57  72 CALM      30.10R
PETER O KNIGHT MOCLDY    68  63  83 CALM      30.08R
ST PETERSBURG  MOCLDY    69  60  73 CALM      30.06R
SARASOTA       PTCLDY    66  60  81 CALM      30.05S
VENICE         FAIR      68  63  83 S7        30.07S

STATION/POSITION SKY/WX   TEMP    WIND        PRES    WAVE   SWELL
                          AIR SEA DIR/SP/G            HT/PER HT/PER
                          (F)     (DEG/KT/KT) (MB)    (FT/S) (FT/S)
CEDAR KEY                  64      50/  2/  2 1019.1R
28.5N   84.5W              70 71  110/ 14/ 16 1017.1R   3/ 4   2/ 7
27.3N   84.3W                 75                N/A     3/ 6
CLEARWATER BEACH           70 65  140/  4/  5 1017.9R
MIDDLE TAMPA BAY           67      30/  1/  1 1018.3R
VENICE                     69 66  160/  7/  7 1017.8R

$$
FLZ066-069-070-075>078-162-262-165-265-210200-
SOUTHWEST FLORIDA AND KEYS

CITY           SKY/WX    TMP DP  RH WIND       PRES   REMARKS
PUNTA GORDA    CLEAR     61  59  93 CALM      30.08S
FT MYERS       CLEAR     69  63  81 CALM      30.06R
SOUTHWEST INTL CLEAR     67  62  84 SW3       30.07R
NAPLES         CLEAR     69  63  81 CALM      30.07R
MARCO ISLAND   CLOUDY    66  61  82 CALM      30.07R
MARATHON       MOCLDY    73  68  84 E3        30.06R
KEY WEST NAS   MOCLDY    73  69  87 E8        30.05R
KEY WEST INTL  CLEAR     75  67  76 E6        30.06R

STATION/POSITION SKY/WX   TEMP    WIND        PRES    WAVE   SWELL
                          AIR SEA DIR/SP/G            HT/PER HT/PER
                          (F)     (DEG/KT/KT) (MB)    (FT/S) (FT/S)
VENICE                     69 66  160/  7/  7 1017.8R
NAPLES                     70 73  160/  2/  3 1018.7R
26.0N   85.6W              74 76   70/  8/  8 1016.2R   3/ 8   2/ 8
DRY TORTUGAS               73     100/  7/  8 1016.7R
NW FL BAY                  71      80/  5/  5 1018.0R
SAND KEY                   76     110/  9/ 11 1017.4R
SOMBRERO KEY               75     110/  8/  9 1018.5R
LONG KEY                   72 71   80/  5/  5 1018.8R
MOLASSES REEF              75 76  100/  4/  4 1018.3R

$$
FLZ067-068-071>074-168-172>174-210200-
SOUTHEAST FLORIDA

CITY           SKY/WX    TMP DP  RH WIND       PRES   REMARKS
W PALM BEACH   PTCLDY    72  63  73 SE5       30.08R
FT LAUDER-EXEC CLEAR     68  61  78 CALM      30.08R
FT LAUDERDALE  PTCLDY    72  62  71 SE3       30.07R
POMPANO BEACH  CLEAR     72  60  66 CALM      30.09R
PEMBROKE PINES PTCLDY    68  61  78 E3        30.09R
OPA LOCKA      PTCLDY    67  61  81 CALM      30.09R
MIAMI          PTCLDY    73  63  70 CALM      30.08R
WEST KENDALL   PTCLDY    65  61  87 CALM      30.09R
HOMESTEAD      PTCLDY    67  63  88 N1        30.08R

STATION/POSITION SKY/WX   TEMP    WIND        PRES    WAVE   SWELL
                          AIR SEA DIR/SP/G            HT/PER HT/PER
                          (F)     (DEG/KT/KT) (MB)    (FT/S) (FT/S)
PORT EVERGLADES            72      CALM  /  1 1018.4
VIRGINIA KEY               74 73  180/  2/  2 1019.0R
LAKE WORTH                 74 76  160/  9/ 10 1018.4R
SETTLEMENT POINT           73      70/  6/  7 1019.7R

$$



USA.gov is the U.S. government's official web portal to all federal, state and local government web resources and services.